time,CTD_Sal_7m,CTD_Temp_7m,S22_pCO2_surface,S22_Temp_surface,S22_DO_surface,S53_pCO2_7m,S53_Temp_7m,S53_DO_7m,S13_pH_7m,S13_Temp_7m,SA03_Date_UTC,SA03_Alkalinity_7m,SA03_Temp_7m,Benchtop_Date_UTC,Benchtop_Alkalinity
UTC,unitless,degrees Celsius,micro-atmospheres (uatm),degrees Celsius,micromol/kilogram (umol/kg),micro-atmospheres (uatm),degrees Celsius,micromol/kilogram (umol/kg),unitless; pH scale,degrees Celsius,unitless,micromol/kilogram (umol/kg),degrees Celsius,unitless,micromol/kilogram (umol/kg)
2017-09-01T14:30:00Z,36.4229,28.22,493.6,28.28,203.196,504.62,28.22,205.207,7.9926,28.2,2017-09-01T18:01Z,2383.3,28.44,2017-09-02T17:02Z,2347.6
2017-09-01T14:45:00Z,36.4602,28.23,493.7,28.34,203.685,496.35,28.25,206.778,7.9775,28.23,2017-09-01T20:01Z,2377.6,28.54,2017-09-02T17:05Z,2346.6
2017-09-01T15:00:00Z,36.4822,28.25,494.63,28.45,203.526,490.41,28.25,208.104,7.9898,28.23,2017-09-01T22:01Z,2371.5,28.52,2017-09-04T13:25Z,2347.1
2017-09-01T15:15:00Z,36.4942,28.26,487.82,28.5,208.043,486.29,28.28,210.254,7.9946,28.26,2017-09-02T00:01Z,2368.6,28.51,2017-09-04T13:58Z,2346.7
2017-09-01T15:30:00Z,36.5018,28.28,482.75,28.48,210.98,478.68,28.28,214.01,7.9939,28.26,2017-09-02T02:01Z,2362.4,28.46,2017-09-04T14:31Z,2348.0
2017-09-01T15:45:00Z,36.5074,28.29,478.77,28.42,212.949,473.34,28.3,216.596,8.001,28.29,2017-09-02T04:01Z,2363.0,28.46,2017-09-05T14:12Z,2328.9
2017-09-01T16:00:00Z,36.5115,28.3,473.95,28.59,218.088,469.98,28.3,218.393,8.0051,28.29,2017-09-02T06:01Z,2362.0,28.41,2017-09-07T14:21Z,2334.1
2017-09-01T16:15:00Z,36.5155,28.32,468.68,28.48,219.006,466.24,28.3,220.914,8.0066,28.32,2017-09-02T08:01Z,2370.6,28.41,2017-09-09T16:30Z,2336.8
2017-09-01T16:30:00Z,36.5175,28.33,466.73,28.56,220.916,462.0,28.33,224.233,8.0112,28.32,2017-09-02T10:01Z,2368.8,28.39,2017-09-07T14:57Z,2337.4
2017-09-01T16:45:00Z,36.5182,28.35,462.08,28.5,223.475,458.66,28.36,226.352,8.0145,28.34,2017-09-02T14:01Z,2357.8,28.44,2017-09-09T12:36Z,2324.4
2017-09-01T17:00:00Z,36.5187,28.37,458.97,28.48,225.118,455.53,28.39,229.29,8.0198,28.34,2017-09-02T16:01Z,2353.5,28.44,2017-09-22T14:00Z,2336.7
2017-09-01T17:15:00Z,36.5185,28.39,458.51,28.5,225.391,452.88,28.39,231.583,8.0172,28.4,2017-09-02T18:01Z,2353.3,28.46,2017-09-16T17:06Z,2323.2
2017-09-01T17:30:00Z,36.5191,28.41,453.79,28.45,227.991,450.85,28.41,233.232,8.0216,28.4,2017-09-02T20:01Z,2361.1,28.49,2017-09-21T15:20Z,2323.3
2017-09-01T17:45:00Z,36.5196,28.43,448.89,28.42,231.245,449.49,28.41,233.737,8.0184,28.43,2017-09-02T22:01Z,2367.3,28.46,,NaN
2017-09-01T18:00:00Z,36.52,28.45,447.54,28.42,232.972,447.69,28.44,235.508,8.0182,28.43,2017-09-03T00:01Z,2364.2,28.41,,NaN
2017-09-01T18:15:00Z,36.5208,28.46,446.47,28.42,233.515,446.81,28.47,235.836,8.0214,28.45,2017-09-03T02:01Z,2366.4,28.41,,NaN
2017-09-01T18:30:00Z,36.5206,28.47,444.47,28.45,234.776,446.4,28.47,235.774,8.0214,28.45,2017-09-03T04:01Z,2360.2,28.41,,NaN
2017-09-01T18:45:00Z,36.5205,28.48,443.29,28.45,234.883,445.38,28.47,236.504,8.0283,28.48,2017-09-03T06:01Z,2359.1,28.41,,NaN
2017-09-01T19:00:00Z,36.521,28.49,442.54,28.48,235.304,444.45,28.5,236.916,8.0266,28.48,2017-09-03T08:01Z,2355.3,28.36,,NaN
2017-09-01T19:15:00Z,36.5205,28.51,442.0,28.5,235.395,443.11,28.5,237.579,8.0263,28.51,2017-09-03T12:01Z,2360.7,28.34,,NaN
2017-09-01T19:30:00Z,36.5214,28.52,440.28,28.5,236.292,442.59,28.5,237.067,8.0253,28.51,2017-09-03T14:01Z,2347.1,28.41,,NaN
2017-09-01T19:45:00Z,36.5221,28.54,439.52,28.5,236.547,441.97,28.53,237.623,8.0198,28.54,2017-09-03T16:01Z,2346.7,28.54,,NaN
2017-09-01T20:00:00Z,36.5215,28.55,439.05,28.53,236.98,441.59,28.55,237.206,8.0245,28.54,2017-09-03T18:01Z,2336.9,28.59,,NaN
2017-09-01T20:15:00Z,36.5219,28.55,438.82,28.53,237.143,441.02,28.55,237.504,8.0265,28.54,2017-09-03T20:01Z,2344.8,28.69,,NaN
2017-09-01T20:30:00Z,36.522,28.56,438.49,28.53,237.704,440.93,28.55,237.403,8.0292,28.57,2017-09-03T22:01Z,2342.1,28.74,,NaN
2017-09-01T20:45:00Z,36.5219,28.56,437.77,28.53,238.406,441.36,28.55,236.875,8.0276,28.54,2017-09-04T00:01Z,2346.7,28.66,,NaN
2017-09-01T21:00:00Z,36.5221,28.56,437.78,28.5,238.191,441.51,28.55,236.446,8.0222,28.57,2017-09-04T02:01Z,2347.2,28.66,,NaN
2017-09-01T21:15:00Z,36.5225,28.56,438.07,28.53,238.575,441.76,28.55,236.163,8.0185,28.54,2017-09-04T04:01Z,2339.9,28.69,,NaN
2017-09-01T21:30:00Z,36.5223,28.55,437.41,28.5,239.273,442.58,28.55,235.659,8.021,28.54,2017-09-04T06:01Z,2340.7,28.69,,NaN
2017-09-01T21:45:00Z,36.5224,28.54,437.41,28.5,238.963,443.16,28.53,234.99,8.0181,28.54,2017-09-04T10:01Z,2341.7,28.54,,NaN
2017-09-01T22:00:00Z,36.5223,28.53,436.81,28.48,239.009,443.73,28.53,234.347,8.0141,28.54,2017-09-04T12:01Z,2344.7,28.37,,NaN
2017-09-01T22:15:00Z,36.5222,28.53,436.98,28.48,238.902,445.71,28.53,232.961,8.0137,28.51,2017-09-04T14:01Z,2353.5,28.41,,NaN
2017-09-01T22:30:00Z,36.523,28.52,436.69,28.45,239.019,445.9,28.53,232.472,8.0145,28.51,2017-09-04T16:01Z,2348.5,28.46,,NaN
2017-09-01T22:45:00Z,36.5229,28.52,434.95,28.48,240.178,447.09,28.53,231.268,8.0151,28.51,2017-09-04T18:01Z,2349.5,28.51,,NaN
2017-09-01T23:00:00Z,36.5233,28.52,434.72,28.48,239.575,446.47,28.53,231.69,8.0139,28.51,2017-09-04T20:01Z,2347.2,28.54,,NaN
2017-09-01T23:15:00Z,36.524,28.52,434.65,28.48,238.935,446.56,28.53,231.406,8.0111,28.51,2017-09-04T22:01Z,2344.5,28.56,,NaN
2017-09-01T23:30:00Z,36.5244,28.52,435.15,28.45,237.807,446.2,28.53,231.839,8.0144,28.51,2017-09-05T00:01Z,2342.9,28.56,,NaN
2017-09-01T23:45:00Z,36.5247,28.52,434.0,28.45,238.2,445.95,28.53,231.46,8.012,28.51,2017-09-05T02:01Z,2338.0,28.56,,NaN
2017-09-02T00:00:00Z,36.5245,28.51,434.68,28.45,237.236,446.6,28.5,230.764,8.0086,28.51,2017-09-05T04:01Z,2337.6,28.56,,NaN
2017-09-02T00:15:00Z,36.5251,28.51,435.81,28.45,236.319,446.69,28.5,230.265,8.0083,28.48,2017-09-05T08:01Z,2348.7,28.49,,NaN
2017-09-02T00:30:00Z,36.5252,28.5,437.74,28.42,234.686,448.21,28.5,229.046,8.0113,28.51,2017-09-05T10:01Z,2344.5,28.51,,NaN
2017-09-02T00:45:00Z,36.5253,28.49,438.65,28.45,234.264,448.9,28.5,228.259,8.0057,28.48,2017-09-05T12:01Z,2346.3,28.64,,NaN
2017-09-02T01:00:00Z,36.5255,28.49,437.86,28.42,234.428,449.42,28.47,227.633,8.0057,28.48,2017-09-05T14:01Z,2345.2,28.86,,NaN
2017-09-02T01:15:00Z,36.5263,28.48,439.0,28.42,233.421,450.36,28.5,227.181,8.0092,28.45,2017-09-05T16:01Z,2333.8,28.99,,NaN
2017-09-02T01:30:00Z,36.5256,28.48,441.81,28.42,231.947,451.49,28.47,225.978,8.0089,28.45,2017-09-05T18:01Z,2335.3,29.09,,NaN
2017-09-02T01:45:00Z,36.5261,28.47,445.35,28.42,229.935,453.79,28.47,224.678,8.0039,28.45,2017-09-05T20:01Z,2330.4,29.14,,NaN
2017-09-02T02:00:00Z,36.5263,28.47,448.47,28.42,228.344,456.1,28.47,222.834,8.0071,28.45,2017-09-05T22:01Z,2329.3,29.14,,NaN
2017-09-02T02:15:00Z,36.5266,28.47,450.87,28.42,227.139,458.28,28.47,221.382,7.9992,28.45,2017-09-06T00:01Z,2326.9,29.04,,NaN
2017-09-02T02:30:00Z,36.5264,28.47,451.13,28.39,226.926,459.83,28.47,220.838,8.0024,28.45,2017-09-06T02:01Z,2324.3,28.88,,NaN
2017-09-02T02:45:00Z,36.527,28.47,450.3,28.42,227.201,459.6,28.44,220.546,8.0036,28.45,2017-09-06T06:01Z,2341.7,28.7,,NaN
2017-09-02T03:00:00Z,36.5271,28.47,451.55,28.42,226.945,461.99,28.47,219.089,7.9955,28.45,2017-09-06T08:01Z,2330.9,28.69,,NaN
2017-09-02T03:15:00Z,36.5276,28.47,451.34,28.42,227.214,462.35,28.47,219.16,7.9953,28.45,2017-09-06T10:01Z,2341.2,28.55,,NaN
2017-09-02T03:30:00Z,36.528,28.46,451.06,28.39,227.129,460.9,28.44,219.922,7.9945,28.45,2017-09-06T12:01Z,2343.5,28.51,,NaN
2017-09-02T03:45:00Z,36.5282,28.46,452.33,28.42,226.606,463.21,28.44,218.507,7.9963,28.45,2017-09-06T14:01Z,2335.8,28.54,,NaN
2017-09-02T04:00:00Z,36.5284,28.46,453.8,28.39,225.559,464.41,28.47,217.948,7.9922,28.45,2017-09-06T16:01Z,2318.8,28.61,,NaN
2017-09-02T04:15:00Z,36.5287,28.46,455.33,28.39,225.035,465.37,28.44,217.04,7.9942,28.43,2017-09-06T18:01Z,2323.0,28.79,,NaN
2017-09-02T04:30:00Z,36.5292,28.45,456.99,28.39,224.144,466.6,28.44,216.354,7.9941,28.45,2017-09-06T20:01Z,2325.8,28.86,,NaN
2017-09-02T04:45:00Z,36.5295,28.44,460.2,28.39,222.39,466.89,28.44,216.13,7.9881,28.43,2017-09-06T22:01Z,2323.3,28.84,,NaN
2017-09-02T05:00:00Z,36.5295,28.44,463.3,28.36,221.337,468.32,28.44,215.409,7.9929,28.43,2017-09-07T00:01Z,2339.8,28.64,,NaN
2017-09-02T05:15:00Z,36.5297,28.44,465.59,28.36,219.858,469.91,28.44,214.223,7.9899,28.43,2017-09-07T04:01Z,2333.3,28.39,,NaN
2017-09-02T05:30:00Z,36.5303,28.43,469.19,28.36,218.547,472.36,28.41,212.869,7.9929,28.43,2017-09-07T06:01Z,2313.6,28.47,,NaN
2017-09-02T05:45:00Z,36.5309,28.43,471.23,28.36,217.624,475.02,28.41,211.225,7.9915,28.43,2017-09-07T08:01Z,2332.1,28.56,,NaN
2017-09-02T06:00:00Z,36.531,28.43,473.52,28.39,216.785,477.5,28.41,210.033,7.9798,28.43,2017-09-07T10:01Z,2336.0,28.54,,NaN
2017-09-02T06:15:00Z,36.5311,28.43,476.16,28.36,215.475,479.96,28.41,208.381,7.9857,28.43,2017-09-07T12:01Z,2345.6,28.44,,NaN
2017-09-02T06:30:00Z,36.5316,28.43,476.31,28.36,215.576,481.77,28.44,207.92,7.982,28.43,2017-09-07T14:01Z,2330.2,28.36,,NaN
2017-09-02T06:45:00Z,36.5316,28.43,478.36,28.36,214.872,482.91,28.41,207.378,7.9816,28.43,2017-09-07T16:01Z,2327.8,28.46,,NaN
2017-09-02T07:00:00Z,36.5323,28.43,480.6,28.36,214.064,484.29,28.41,206.89,7.9855,28.43,2017-09-07T18:01Z,2313.5,28.71,,NaN
2017-09-02T07:15:00Z,36.5324,28.42,480.65,28.36,213.618,484.87,28.41,206.801,7.9824,28.4,2017-09-07T20:01Z,2322.1,28.84,,NaN
2017-09-02T07:30:00Z,36.5331,28.42,481.5,28.36,213.359,486.09,28.41,206.291,7.9765,28.43,2017-09-07T22:01Z,2323.6,28.84,,NaN
2017-09-02T07:45:00Z,36.5328,28.41,481.11,28.34,213.856,485.93,28.41,206.173,7.9775,28.4,2017-09-08T02:01Z,2329.2,28.66,,NaN
2017-09-02T08:00:00Z,36.5331,28.41,482.51,28.34,213.063,486.72,28.41,205.901,7.9749,28.4,2017-09-08T04:01Z,2324.4,28.56,,NaN
2017-09-02T08:15:00Z,36.5335,28.41,482.02,28.36,213.341,485.64,28.41,206.816,7.9826,28.4,2017-09-08T06:01Z,2313.1,28.58,,NaN
2017-09-02T08:30:00Z,36.5335,28.41,481.06,28.36,213.724,485.54,28.39,206.719,7.9729,28.4,2017-09-08T08:01Z,2316.8,28.62,,NaN
2017-09-02T08:45:00Z,36.5341,28.41,480.61,28.34,214.064,485.31,28.39,207.002,7.9796,28.4,2017-09-08T10:01Z,2346.1,28.54,,NaN
2017-09-02T09:00:00Z,36.5339,28.4,480.86,28.34,213.548,484.59,28.41,207.681,7.9813,28.4,2017-09-08T12:01Z,2336.2,28.46,,NaN
2017-09-02T09:15:00Z,36.5343,28.4,480.25,28.34,214.136,485.52,28.39,206.557,7.976,28.37,2017-09-08T14:01Z,2337.4,28.49,,NaN
2017-09-02T09:30:00Z,36.5344,28.4,481.15,28.34,213.517,485.39,28.39,207.103,7.9759,28.4,2017-09-08T16:01Z,2326.5,28.59,,NaN
2017-09-02T09:45:00Z,36.5353,28.39,481.45,28.34,213.321,486.7,28.39,205.865,7.9844,28.37,2017-09-08T18:01Z,2319.0,28.69,,NaN
2017-09-02T10:00:00Z,36.5353,28.39,483.45,28.34,212.587,487.54,28.39,205.369,7.9786,28.37,2017-09-08T20:01Z,2323.4,28.9,,NaN
2017-09-02T10:15:00Z,36.5358,28.39,484.62,28.34,211.738,488.39,28.39,204.844,7.9818,28.4,2017-09-09T00:01Z,2324.1,28.89,,NaN
2017-09-02T10:30:00Z,36.5364,28.39,486.12,28.34,211.327,489.9,28.39,204.135,7.9771,28.37,2017-09-09T02:01Z,2335.7,28.81,,NaN
2017-09-02T10:45:00Z,36.537,28.39,487.81,28.34,210.916,490.5,28.39,204.229,7.976,28.37,2017-09-09T04:01Z,2324.8,28.76,,NaN
2017-09-02T11:00:00Z,36.5379,28.38,488.97,28.34,210.636,489.27,28.36,205.583,7.9767,28.37,2017-09-09T06:01Z,2309.7,28.76,,NaN
2017-09-02T11:15:00Z,36.5374,28.39,489.83,28.31,210.37,489.97,28.36,205.51,7.9755,28.37,2017-09-09T08:01Z,2320.5,28.69,,NaN
2017-09-02T11:30:00Z,36.5383,28.39,490.79,28.34,210.766,489.86,28.39,206.152,7.9749,28.4,2017-09-09T10:01Z,2319.4,28.66,,NaN
2017-09-02T11:45:00Z,36.5387,28.39,491.21,28.34,210.873,491.01,28.39,206.176,7.977,28.4,2017-09-09T12:01Z,2329.2,28.66,,NaN
2017-09-02T12:00:00Z,36.5389,28.4,470.75,28.36,211.338,490.55,28.39,207.103,7.9791,28.4,2017-09-09T14:01Z,2333.6,28.66,,NaN
2017-09-02T12:15:00Z,36.5394,28.4,450.29,28.36,212.778,490.04,28.41,208.082,7.9798,28.4,2017-09-09T16:01Z,2327.3,28.69,,NaN
2017-09-02T12:30:00Z,36.5397,28.41,478.83,28.36,213.933,490.01,28.41,208.454,7.9749,28.4,2017-09-09T18:01Z,2317.3,28.85,,NaN
2017-09-02T12:45:00Z,36.54,28.42,477.34,28.39,215.1,486.13,28.41,211.99,7.9814,28.4,2017-09-09T22:01Z,2318.2,28.98,,NaN
2017-09-02T13:00:00Z,36.5406,28.42,477.73,28.42,216.455,483.68,28.41,214.244,7.9779,28.4,2017-09-10T00:01Z,2317.6,28.96,,NaN
2017-09-02T13:15:00Z,36.5411,28.42,480.85,28.36,218.287,485.0,28.41,213.673,7.9847,28.4,2017-09-10T02:01Z,2333.3,28.86,,NaN
2017-09-02T13:30:00Z,36.5414,28.42,482.64,28.36,219.081,486.44,28.41,213.177,7.984,28.4,2017-09-10T04:01Z,2325.6,28.81,,NaN
2017-09-02T13:45:00Z,36.5415,28.42,480.43,28.36,220.94,485.55,28.41,214.118,7.9792,28.43,2017-09-10T06:01Z,2312.9,28.79,,NaN
2017-09-02T14:00:00Z,36.5405,28.43,479.01,28.39,221.363,484.56,28.41,214.816,7.9813,28.43,2017-09-10T08:01Z,2308.3,28.74,,NaN
2017-09-02T14:15:00Z,36.5405,28.44,481.79,28.42,219.946,482.21,28.44,217.226,7.9833,28.43,2017-09-10T10:01Z,2321.1,28.71,,NaN
2017-09-02T14:30:00Z,36.5406,28.45,482.5,28.45,220.603,479.8,28.47,218.944,7.9892,28.43,2017-09-10T12:01Z,2317.9,28.71,,NaN
2017-09-02T14:45:00Z,36.5396,28.46,483.03,28.53,222.343,479.75,28.44,220.218,7.9838,28.45,2017-09-10T14:01Z,2327.6,28.76,,NaN
2017-09-02T15:00:00Z,36.5391,28.46,480.14,28.48,223.395,479.39,28.44,220.337,7.9885,28.45,2017-09-10T16:01Z,2323.6,28.82,,NaN
2017-09-02T15:15:00Z,36.5398,28.46,483.79,28.45,222.016,483.47,28.44,218.652,7.9859,28.45,2017-09-10T20:01Z,2316.6,29.09,,NaN
2017-09-02T15:30:00Z,36.5409,28.46,485.83,28.42,221.251,483.77,28.47,219.119,7.9832,28.45,2017-09-10T22:01Z,2320.8,29.06,,NaN
2017-09-02T15:45:00Z,36.5417,28.46,488.7,28.42,220.3,485.88,28.47,218.037,7.9821,28.45,2017-09-11T00:01Z,2328.6,28.99,,NaN
2017-09-02T16:00:00Z,36.5402,28.46,490.06,28.39,219.74,488.29,28.44,216.304,7.985,28.45,2017-09-11T02:01Z,2331.5,28.87,,NaN
2017-09-02T16:15:00Z,36.5377,28.45,492.54,28.39,218.498,490.42,28.44,215.053,7.9819,28.45,2017-09-11T04:01Z,2343.1,28.82,,NaN
2017-09-02T16:30:00Z,36.5355,28.46,494.22,28.39,217.633,489.49,28.47,216.291,7.9775,28.45,2017-09-11T06:01Z,2321.7,28.86,,NaN
2017-09-02T16:45:00Z,36.5344,28.46,498.07,28.39,215.81,489.25,28.44,216.447,7.9737,28.45,2017-09-11T08:01Z,2315.9,28.84,,NaN
2017-09-02T17:00:00Z,36.5335,28.47,498.57,28.42,216.012,487.91,28.47,217.592,7.9807,28.45,2017-09-11T10:01Z,2322.0,28.79,,NaN
2017-09-02T17:15:00Z,36.534,28.47,503.94,28.45,214.485,489.87,28.47,216.902,7.9715,28.45,2017-09-11T12:01Z,2327.5,28.71,,NaN
2017-09-02T17:30:00Z,36.5361,28.48,510.42,28.56,211.7,487.6,28.47,218.104,7.9794,28.48,2017-09-11T14:01Z,2319.7,28.66,,NaN
2017-09-02T17:45:00Z,36.5357,28.47,509.18,28.45,210.929,489.28,28.47,217.386,7.9778,28.48,2017-09-11T18:01Z,2312.5,28.76,,NaN
2017-09-02T18:00:00Z,36.5353,28.47,509.07,28.45,211.891,492.7,28.47,215.368,7.9755,28.45,2017-09-11T20:01Z,2305.0,28.74,,NaN
2017-09-02T18:15:00Z,36.5361,28.47,507.01,28.45,213.382,492.95,28.47,215.197,7.9697,28.45,2017-09-11T22:01Z,2312.5,28.69,,NaN
2017-09-02T18:30:00Z,36.5363,28.48,504.76,28.45,214.356,493.32,28.47,215.846,7.9716,28.48,2017-09-12T00:01Z,2325.1,28.63,,NaN
2017-09-02T18:45:00Z,36.5356,28.48,500.87,28.45,216.349,492.77,28.5,215.891,7.978,28.48,2017-09-12T02:01Z,2317.2,28.56,,NaN
2017-09-02T19:00:00Z,36.5356,28.49,498.49,28.48,217.87,490.39,28.5,217.866,7.9751,28.48,2017-09-12T04:01Z,2330.2,28.49,,NaN
2017-09-02T19:15:00Z,36.5347,28.49,493.89,28.45,218.969,489.87,28.5,217.06,7.9812,28.48,2017-09-12T06:01Z,2320.7,28.41,,NaN
2017-09-02T19:30:00Z,36.5322,28.49,487.24,28.45,220.48,486.46,28.47,218.05,7.9819,28.48,2017-09-12T08:01Z,2303.5,28.34,,NaN
2017-09-02T19:45:00Z,36.5282,28.49,482.01,28.45,222.354,482.55,28.47,219.446,7.9862,28.48,2017-09-12T10:01Z,2310.8,28.3,,NaN
2017-09-02T20:00:00Z,36.5255,28.49,473.78,28.45,223.835,477.76,28.5,220.514,7.9855,28.48,2017-09-12T12:01Z,2314.9,28.24,,NaN
2017-09-02T20:15:00Z,36.5238,28.49,468.78,28.45,224.528,472.84,28.47,221.699,7.9925,28.48,2017-09-12T16:01Z,2349.1,28.41,,NaN
2017-09-02T20:30:00Z,36.5242,28.5,464.24,28.45,225.935,470.26,28.5,222.503,7.9961,28.48,2017-09-12T18:01Z,2362.3,28.5,,NaN
2017-09-02T20:45:00Z,36.5266,28.5,460.76,28.45,227.044,467.28,28.5,223.506,7.9991,28.51,2017-09-12T20:01Z,2337.9,28.64,,NaN
2017-09-02T21:00:00Z,36.5273,28.5,457.9,28.45,227.325,465.11,28.5,223.785,8.0066,28.48,2017-09-12T22:01Z,2312.7,28.48,,NaN
2017-09-02T21:15:00Z,36.5269,28.49,457.18,28.45,228.266,463.73,28.5,224.136,7.9998,28.48,2017-09-13T00:01Z,2318.8,28.44,,NaN
2017-09-02T21:30:00Z,36.5273,28.49,456.5,28.45,227.846,463.85,28.5,223.64,8.0008,28.48,2017-09-13T02:01Z,2324.4,28.27,,NaN
2017-09-02T21:45:00Z,36.527,28.48,455.4,28.42,228.207,463.35,28.47,223.233,7.9949,28.48,2017-09-13T04:01Z,2319.1,28.19,,NaN
2017-09-02T22:00:00Z,36.5269,28.47,455.32,28.42,227.959,463.87,28.47,222.664,7.9988,28.45,2017-09-13T06:01Z,2328.6,28.26,,NaN
2017-09-02T22:15:00Z,36.5274,28.46,455.72,28.42,226.415,463.97,28.47,222.07,7.9939,28.43,2017-09-13T08:01Z,2318.9,28.21,,NaN
2017-09-02T22:30:00Z,36.5243,28.46,456.04,28.39,225.591,466.18,28.47,220.188,7.999,28.45,2017-09-13T10:01Z,2328.5,28.14,,NaN
2017-09-02T22:45:00Z,36.5237,28.45,457.02,28.39,224.659,468.06,28.44,218.137,7.9966,28.45,2017-09-13T14:01Z,2321.7,28.29,,NaN
2017-09-02T23:00:00Z,36.5232,28.43,457.53,28.39,224.106,467.52,28.44,218.754,7.9946,28.43,2017-09-13T16:01Z,2318.4,28.34,,NaN
2017-09-02T23:15:00Z,36.5225,28.43,457.14,28.36,223.926,470.33,28.44,215.9,7.9943,28.43,2017-09-13T18:01Z,2322.2,28.36,,NaN
2017-09-02T23:30:00Z,36.5224,28.43,457.25,28.36,224.027,472.24,28.41,213.958,7.9924,28.43,2017-09-13T20:01Z,2317.1,28.41,,NaN
2017-09-02T23:45:00Z,36.5226,28.42,458.04,28.36,223.104,471.19,28.41,214.861,7.99,28.43,2017-09-13T22:01Z,2320.0,28.41,,NaN
2017-09-03T00:00:00Z,36.5228,28.43,460.6,28.39,221.781,474.08,28.41,212.59,7.9883,28.43,2017-09-14T00:01Z,2316.0,28.36,,NaN
2017-09-03T00:15:00Z,36.5236,28.43,460.89,28.39,221.71,475.24,28.41,212.225,7.9897,28.43,2017-09-14T02:01Z,2323.1,28.37,,NaN
2017-09-03T00:30:00Z,36.524,28.43,462.52,28.39,220.858,475.8,28.41,211.627,7.9919,28.43,2017-09-14T04:01Z,2337.2,28.19,,NaN
2017-09-03T00:45:00Z,36.5254,28.43,462.72,28.39,220.672,475.38,28.41,212.462,7.9883,28.43,2017-09-14T06:01Z,2331.6,28.16,,NaN
2017-09-03T01:00:00Z,36.5264,28.43,464.94,28.36,219.725,475.99,28.41,212.239,7.9852,28.43,2017-09-14T08:01Z,2323.2,28.14,,NaN
2017-09-03T01:15:00Z,36.5268,28.43,468.18,28.39,217.964,476.1,28.41,211.889,7.9877,28.43,2017-09-14T12:01Z,2317.9,28.09,,NaN
2017-09-03T01:30:00Z,36.5269,28.43,470.71,28.36,216.46,477.76,28.41,210.731,7.9848,28.43,2017-09-14T14:01Z,2318.1,28.14,,NaN
2017-09-03T01:45:00Z,36.5275,28.43,473.83,28.36,214.703,481.0,28.41,208.734,7.9833,28.43,2017-09-14T16:01Z,2321.6,28.19,,NaN
2017-09-03T02:00:00Z,36.5277,28.43,478.83,28.36,212.559,483.73,28.41,207.049,7.9801,28.43,2017-09-14T18:01Z,2316.9,28.29,,NaN
2017-09-03T02:15:00Z,36.5282,28.43,481.86,28.36,211.392,486.69,28.41,205.967,7.9844,28.43,2017-09-14T20:01Z,2309.1,28.41,,NaN
2017-09-03T02:30:00Z,36.5283,28.43,484.94,28.39,210.626,490.3,28.41,203.309,7.9692,28.43,2017-09-14T22:01Z,2330.6,28.34,,NaN
2017-09-03T02:45:00Z,36.5286,28.43,485.37,28.36,211.087,492.16,28.41,203.282,7.9745,28.4,2017-09-15T00:01Z,2328.4,28.31,,NaN
2017-09-03T03:00:00Z,36.5286,28.43,487.88,28.39,210.802,493.69,28.41,203.13,7.9698,28.43,2017-09-15T02:01Z,2332.3,28.29,,NaN
2017-09-03T03:15:00Z,36.5286,28.43,488.18,28.36,211.686,493.43,28.41,204.107,7.9713,28.43,2017-09-15T04:01Z,2330.8,28.26,,NaN
2017-09-03T03:30:00Z,36.529,28.43,489.5,28.39,211.621,496.34,28.44,202.977,7.9736,28.43,2017-09-15T06:01Z,2333.6,28.24,,NaN
2017-09-03T03:45:00Z,36.5293,28.43,490.47,28.36,212.038,495.61,28.41,204.29,7.9707,28.43,2017-09-15T10:01Z,2318.3,28.16,,NaN
2017-09-03T04:00:00Z,36.53,28.43,492.6,28.36,211.026,497.87,28.41,203.013,7.9699,28.43,2017-09-15T12:01Z,2324.9,28.16,,NaN
2017-09-03T04:15:00Z,36.5305,28.43,492.5,28.36,213.333,499.46,28.44,203.541,7.9628,28.43,2017-09-15T14:01Z,2327.6,28.19,,NaN
2017-09-03T04:30:00Z,36.5313,28.43,493.56,28.39,212.907,498.75,28.41,205.597,7.9694,28.43,2017-09-15T16:01Z,2326.0,28.32,,NaN
2017-09-03T04:45:00Z,36.532,28.43,492.31,28.39,214.542,499.76,28.41,205.93,7.9677,28.43,2017-09-15T18:01Z,2320.4,28.44,,NaN
2017-09-03T05:00:00Z,36.5324,28.43,493.4,28.39,214.204,500.04,28.41,206.459,7.9708,28.43,2017-09-15T20:01Z,2315.4,28.49,,NaN
2017-09-03T05:15:00Z,36.5326,28.43,495.04,28.39,213.415,499.67,28.41,207.156,7.9646,28.43,2017-09-15T22:01Z,2322.3,28.54,,NaN
2017-09-03T05:30:00Z,36.533,28.42,495.18,28.36,213.479,501.94,28.44,205.415,7.9685,28.4,2017-09-16T00:01Z,2325.9,28.46,,NaN
2017-09-03T05:45:00Z,36.5332,28.42,497.75,28.36,211.644,503.21,28.41,204.644,7.9617,28.4,2017-09-16T02:01Z,2332.9,28.34,,NaN
2017-09-03T06:00:00Z,36.5339,28.41,498.15,28.36,211.08,505.44,28.41,202.907,7.9606,28.4,2017-09-16T04:01Z,2329.8,28.29,,NaN
2017-09-03T06:15:00Z,36.5338,28.4,499.25,28.34,211.174,504.13,28.41,204.125,7.9619,28.4,2017-09-16T08:01Z,2324.4,28.26,,NaN
2017-09-03T06:30:00Z,36.535,28.4,502.02,28.34,208.801,504.71,28.39,203.912,7.9652,28.4,2017-09-16T10:01Z,2320.8,28.21,,NaN
2017-09-03T06:45:00Z,36.5342,28.4,502.27,28.34,208.699,506.24,28.39,202.797,7.966,28.4,2017-09-16T12:01Z,2330.5,28.06,,NaN
2017-09-03T07:00:00Z,36.5344,28.39,503.11,28.34,207.997,509.38,28.39,200.316,7.9577,28.37,2017-09-16T14:01Z,2332.5,28.19,,NaN
2017-09-03T07:15:00Z,36.5342,28.39,504.69,28.34,207.214,510.94,28.39,199.357,7.9588,28.37,2017-09-16T16:01Z,2326.8,28.34,,NaN
2017-09-03T07:30:00Z,36.5346,28.38,506.83,28.34,206.052,511.75,28.39,198.316,7.9577,28.37,2017-09-16T18:01Z,2323.7,28.44,,NaN
2017-09-03T07:45:00Z,36.5344,28.38,508.96,28.31,204.876,511.74,28.36,198.562,7.9592,28.37,2017-09-16T20:01Z,2324.4,28.44,,NaN
2017-09-03T08:00:00Z,36.5341,28.38,510.01,28.31,204.446,513.44,28.36,197.584,7.9559,28.37,2017-09-16T22:01Z,2316.7,28.44,,NaN
2017-09-03T08:15:00Z,36.5343,28.37,511.75,28.34,204.08,514.09,28.36,197.545,7.9561,28.34,2017-09-17T00:01Z,2325.8,28.26,,NaN
2017-09-03T08:30:00Z,36.5345,28.37,511.49,28.28,204.001,515.09,28.36,196.689,7.9563,28.34,2017-09-17T02:01Z,2313.8,28.24,,NaN
2017-09-03T08:45:00Z,36.5352,28.37,514.16,28.31,202.605,518.14,28.36,194.86,7.9533,28.37,2017-09-17T06:01Z,2318.6,28.11,,NaN
2017-09-03T09:00:00Z,36.5344,28.36,515.07,28.31,202.316,517.71,28.36,195.032,7.9554,28.34,2017-09-17T08:01Z,2317.0,28.11,,NaN
2017-09-03T09:15:00Z,36.5351,28.36,515.17,28.28,201.408,520.37,28.36,194.691,7.9548,28.34,2017-09-17T10:01Z,2321.1,28.04,,NaN
2017-09-03T09:30:00Z,36.535,28.35,518.82,28.31,199.314,521.09,28.36,192.849,7.951,28.34,2017-09-17T12:01Z,2320.2,28.01,,NaN
2017-09-03T09:45:00Z,36.5341,28.34,519.78,28.31,199.04,519.35,28.33,192.926,7.9469,28.32,2017-09-17T14:01Z,2321.6,28.04,,NaN
2017-09-03T10:00:00Z,36.5343,28.35,519.68,28.28,198.46,522.82,28.36,191.004,7.9479,28.34,2017-09-17T16:01Z,2322.4,28.16,,NaN
2017-09-03T10:15:00Z,36.5348,28.34,518.54,28.25,198.505,523.68,28.33,190.727,7.9515,28.32,2017-09-17T18:01Z,2321.6,28.19,,NaN
2017-09-03T10:30:00Z,36.5358,28.32,520.57,28.25,197.075,523.8,28.33,191.41,7.953,28.32,2017-09-17T20:01Z,2316.1,28.19,,NaN
2017-09-03T10:45:00Z,36.5341,28.32,521.3,28.25,195.908,522.8,28.33,189.941,7.9472,28.32,2017-09-17T22:01Z,2318.0,28.21,,NaN
2017-09-03T11:00:00Z,36.534,28.32,521.91,28.25,195.68,522.06,28.3,190.287,7.9494,28.32,2017-09-18T00:01Z,2320.9,28.14,,NaN
2017-09-03T11:15:00Z,36.5342,28.32,523.72,28.28,194.993,522.02,28.3,190.4,7.9445,28.29,2017-09-18T04:01Z,2325.5,28.04,,NaN
2017-09-03T11:30:00Z,36.5344,28.31,524.81,28.28,194.819,521.91,28.3,190.721,7.9523,28.29,2017-09-18T06:01Z,2330.4,28.0,,NaN
2017-09-03T11:45:00Z,36.5355,28.32,525.56,28.28,194.673,522.25,28.33,191.164,7.9501,28.32,2017-09-18T08:01Z,2321.4,27.96,,NaN
2017-09-03T12:00:00Z,36.5342,28.33,525.51,28.28,195.234,520.78,28.33,192.266,7.9525,28.32,2017-09-18T10:01Z,2322.8,27.89,,NaN
2017-09-03T12:15:00Z,36.5346,28.33,524.7,28.28,196.919,519.76,28.33,193.241,7.953,28.32,2017-09-18T12:01Z,2324.1,27.8,,NaN
2017-09-03T12:30:00Z,36.5344,28.34,526.08,28.31,197.317,518.23,28.33,194.248,7.9621,28.32,2017-09-18T14:01Z,2322.8,27.84,,NaN
2017-09-03T12:45:00Z,36.5346,28.34,525.81,28.31,198.798,516.68,28.33,196.111,7.9531,28.34,2017-09-18T16:01Z,2326.7,27.84,,NaN